Home   Weather   Washington DC   Past weeks
Flag for USA

Past Weather in Washington DC, USA — Yesterday and Last 2 Weeks

Now
71 °F

Scattered clouds.


Feels Like: 77 °F
Forecast: 71 / 52 °F
Wind: 14 mph from Northwest

Location: Reagan National Airport

Current Time: Apr 22, 2019 at 4:18:29 pm

Latest Report: Apr 22, 2019 at 2:52 pm


Visibility: 10 mi

Pressure: 30.08 "Hg

Humidity: 44%

Dew Point: 48 °F

Location of Washington DCLocation

Past Weather in Washington DC — Graph

°F

Washington DC Temperature Yesterday

Maximum temperature yesterday: 69 °F (at 3:52 pm)
Minimum temperature yesterday: 52 °F (at 6:52 am)
Average temperature yesterday: 62 °F

High & Low Weather Summary for the Past Weeks

 TemperatureHumidityPressure
High83 °F (Apr 8, 12:52 pm)94% (Apr 13, 4:28 am)30.21 "Hg (Apr 13, 4:28 am)
Low45 °F (Apr 16, 4:52 am)17% (Apr 9, 9:52 pm)29.39 "Hg (Apr 15, 1:52 am)
Average64 °F63%29.91 "Hg
* Reported Apr 7 2:52 pm — Apr 22 2:52 pm, Washington DC. Weather by CustomWeather, © 2019

Note: Actual official high and low records may vary slightly from our data, if they occured in-between our weather recording intervals... More about our weather records

Advertising

Washington DC Weather History for the Previous 24 Hours

Scroll right to see more
 ConditionsComfort  
Time TempWeatherWind HumidityBarometerVisibility
2:52 pm
Mon, Apr 22
71 °FScattered clouds.14 mph44%30.08 "Hg10 mi
1:52 pm70 °FScattered clouds.13 mph47%30.10 "Hg10 mi
12:52 pm69 °FBroken clouds.15 mph47%30.12 "Hg10 mi
11:52 am67 °FPartly sunny.13 mph53%30.14 "Hg10 mi
10:52 am65 °FPartly sunny.16 mph52%30.15 "Hg10 mi
9:52 am63 °FBroken clouds.17 mph56%30.14 "Hg10 mi
8:52 am59 °FPartly sunny.15 mph60%30.14 "Hg10 mi
7:52 am57 °FMostly cloudy.9 mph62%30.14 "Hg10 mi
6:52 am56 °FPartly sunny.12 mph65%30.11 "Hg10 mi
5:52 am56 °FMostly cloudy.12 mph62%30.11 "Hg10 mi
4:52 am55 °FPassing clouds.8 mph62%30.08 "Hg10 mi
3:52 am56 °FPassing clouds.10 mph60%30.08 "Hg10 mi
2:52 am58 °FPassing clouds.12 mph58%30.07 "Hg10 mi
1:52 am58 °FPassing clouds.10 mph58%30.09 "Hg10 mi
12:52 am60 °FPassing clouds.14 mph56%30.10 "Hg10 mi
11:52 pm
Sun, Apr 21
62 °FPassing clouds.12 mph56%30.10 "Hg10 mi
10:52 pm63 °FPassing clouds.14 mph54%30.08 "Hg10 mi
9:52 pm64 °FMostly cloudy.3 mph50%30.06 "Hg10 mi
9:18 pm64 °FMostly cloudy.6 mph52%30.06 "Hg10 mi
8:52 pm64 °FLight rain. Mostly cloudy.8 mph54%30.06 "Hg10 mi
7:52 pm64 °FPassing clouds.9 mph50%30.04 "Hg10 mi
6:52 pm67 °FPartly sunny.9 mph45%30.02 "Hg10 mi
5:52 pm68 °FPartly sunny.5 mph38%30.00 "Hg10 mi
4:52 pm68 °FPartly sunny.No wind36%29.99 "Hg10 mi
Weather by CustomWeather, © 2019

See weather overview